Year,Month,Day,Hour,Minute,Value (Times are PST for temperature in C)
2023,05,13,00,00,15.80
2023,05,13,00,01,15.80
2023,05,13,00,02,15.80
2023,05,13,00,03,15.80
2023,05,13,00,04,15.80
2023,05,13,00,05,15.80
2023,05,13,00,06,15.80
2023,05,13,00,07,15.70
2023,05,13,00,08,15.70
2023,05,13,00,09,15.70
2023,05,13,00,10,15.70
2023,05,13,00,11,15.70
2023,05,13,00,12,15.70
2023,05,13,00,13,15.70
2023,05,13,00,14,15.70
2023,05,13,00,15,15.70
2023,05,13,00,16,15.60
2023,05,13,00,17,15.60
2023,05,13,00,18,15.60
2023,05,13,00,19,15.60
2023,05,13,00,20,15.60
2023,05,13,00,21,15.60
2023,05,13,00,22,15.60
2023,05,13,00,23,15.60
2023,05,13,00,24,15.60
2023,05,13,00,25,15.60
2023,05,13,00,26,15.50
2023,05,13,00,27,15.50
2023,05,13,00,28,15.50
2023,05,13,00,29,15.50
2023,05,13,00,30,15.50
2023,05,13,00,31,15.50
2023,05,13,00,32,15.50
2023,05,13,00,33,15.50
2023,05,13,00,34,15.50
2023,05,13,00,35,15.50
2023,05,13,00,36,15.50
2023,05,13,00,37,15.40
2023,05,13,00,38,15.40
2023,05,13,00,39,15.40
2023,05,13,00,40,15.40
2023,05,13,00,41,15.40
2023,05,13,00,42,15.30
2023,05,13,00,43,15.30
2023,05,13,00,44,15.30
2023,05,13,00,45,15.30
2023,05,13,00,46,15.30
2023,05,13,00,47,15.20
2023,05,13,00,48,15.20
2023,05,13,00,49,15.20
2023,05,13,00,50,15.20
2023,05,13,00,51,15.20
2023,05,13,00,52,15.20
2023,05,13,00,53,15.20
2023,05,13,00,54,15.10
2023,05,13,00,55,15.20
2023,05,13,00,56,15.20
2023,05,13,00,57,15.20
2023,05,13,00,58,15.20
2023,05,13,00,59,15.20
2023,05,13,01,00,15.20
2023,05,13,01,01,15.20
2023,05,13,01,02,15.10
2023,05,13,01,03,15.10
2023,05,13,01,04,15.10
2023,05,13,01,05,15.10
2023,05,13,01,06,15.20
2023,05,13,01,07,15.20
2023,05,13,01,08,15.20
2023,05,13,01,09,15.20
2023,05,13,01,10,15.20
2023,05,13,01,11,15.20
2023,05,13,01,12,15.20
2023,05,13,01,13,15.20
2023,05,13,01,14,15.20
2023,05,13,01,15,15.10
2023,05,13,01,16,15.10
2023,05,13,01,17,15.10
2023,05,13,01,18,15.10
2023,05,13,01,19,15.10
2023,05,13,01,20,15.10
2023,05,13,01,21,15.10
2023,05,13,01,22,15.10
2023,05,13,01,23,15.10
2023,05,13,01,24,15.10
2023,05,13,01,25,15.10
2023,05,13,01,26,15.10
2023,05,13,01,27,15.10
2023,05,13,01,28,15.20
2023,05,13,01,29,15.20
2023,05,13,01,30,15.20
2023,05,13,01,31,15.10
2023,05,13,01,32,15.10
2023,05,13,01,33,15.10
2023,05,13,01,34,15.10
2023,05,13,01,35,15.10
2023,05,13,01,36,15.10
2023,05,13,01,37,15.10
2023,05,13,01,38,15.10
2023,05,13,01,39,15.10
2023,05,13,01,40,15.10
2023,05,13,01,41,15.10
2023,05,13,01,42,15.10
2023,05,13,01,43,15.10
2023,05,13,01,44,15.10
2023,05,13,01,45,15.00
2023,05,13,01,46,15.00
2023,05,13,01,47,15.00
2023,05,13,01,48,15.00
2023,05,13,01,49,15.00
2023,05,13,01,50,15.00
2023,05,13,01,51,14.90
2023,05,13,01,52,14.90
2023,05,13,01,53,14.90
2023,05,13,01,54,14.90
2023,05,13,01,55,14.90
2023,05,13,01,56,14.90
2023,05,13,01,57,14.90
2023,05,13,01,58,14.90
2023,05,13,01,59,14.90
2023,05,13,02,00,14.90
2023,05,13,02,01,14.80
2023,05,13,02,02,14.80
2023,05,13,02,03,14.80
2023,05,13,02,04,14.80
2023,05,13,02,05,14.80
2023,05,13,02,06,14.80
2023,05,13,02,07,14.80
2023,05,13,02,08,14.70
2023,05,13,02,09,14.70
2023,05,13,02,10,14.70
2023,05,13,02,11,14.70
2023,05,13,02,12,14.70
2023,05,13,02,13,14.70
2023,05,13,02,14,14.70
2023,05,13,02,15,14.70
2023,05,13,02,16,14.70
2023,05,13,02,17,14.70
2023,05,13,02,18,14.70
2023,05,13,02,19,14.60
2023,05,13,02,20,14.60
2023,05,13,02,21,14.60
2023,05,13,02,22,14.60
2023,05,13,02,23,14.50
2023,05,13,02,24,14.50
2023,05,13,02,25,14.50
2023,05,13,02,26,14.40
2023,05,13,02,27,14.40
2023,05,13,02,28,14.40
2023,05,13,02,29,14.30
2023,05,13,02,30,14.30
2023,05,13,02,31,14.20
2023,05,13,02,32,14.20
2023,05,13,02,33,14.10
2023,05,13,02,34,14.10
2023,05,13,02,35,14.00
2023,05,13,02,36,14.00
2023,05,13,02,37,13.90
2023,05,13,02,38,13.90
2023,05,13,02,39,13.80
2023,05,13,02,40,13.80
2023,05,13,02,41,13.80
2023,05,13,02,42,13.80
2023,05,13,02,43,13.70
2023,05,13,02,44,13.70
2023,05,13,02,45,13.70
2023,05,13,02,46,13.70
2023,05,13,02,47,13.70
2023,05,13,02,48,13.70
2023,05,13,02,49,13.60
2023,05,13,02,50,13.60
2023,05,13,02,51,13.60
2023,05,13,02,52,13.60
2023,05,13,02,53,13.60
2023,05,13,02,54,13.60
2023,05,13,02,55,13.60
2023,05,13,02,56,13.60
2023,05,13,02,57,13.50
2023,05,13,02,58,13.50
2023,05,13,02,59,13.50
2023,05,13,03,00,13.50
2023,05,13,03,01,13.50
2023,05,13,03,02,13.40
2023,05,13,03,03,13.40
2023,05,13,03,04,13.40
2023,05,13,03,05,13.40
2023,05,13,03,06,13.40
2023,05,13,03,07,13.30
2023,05,13,03,08,13.30
2023,05,13,03,09,13.30
2023,05,13,03,10,13.30
2023,05,13,03,11,13.30
2023,05,13,03,12,13.30
2023,05,13,03,13,13.30
2023,05,13,03,14,13.30
2023,05,13,03,15,13.20
2023,05,13,03,16,13.20
2023,05,13,03,17,13.20
2023,05,13,03,18,13.20
2023,05,13,03,19,13.20
2023,05,13,03,20,13.20
2023,05,13,03,21,13.20
2023,05,13,03,22,13.20
2023,05,13,03,23,13.10
2023,05,13,03,24,13.10
2023,05,13,03,25,13.10
2023,05,13,03,26,13.10
2023,05,13,03,27,13.10
2023,05,13,03,28,13.00
2023,05,13,03,29,13.00
2023,05,13,03,30,13.00
2023,05,13,03,31,13.00
2023,05,13,03,32,13.00
2023,05,13,03,33,13.00
2023,05,13,03,34,13.00
2023,05,13,03,35,13.00
2023,05,13,03,36,12.90
2023,05,13,03,37,12.90
2023,05,13,03,38,12.90
2023,05,13,03,39,13.00
2023,05,13,03,40,13.00
2023,05,13,03,41,13.00
2023,05,13,03,42,13.00
2023,05,13,03,43,13.00
2023,05,13,03,44,13.00
2023,05,13,03,45,13.00
2023,05,13,03,46,13.00
2023,05,13,03,47,13.00
2023,05,13,03,48,13.00
2023,05,13,03,49,13.00
2023,05,13,03,50,13.00
2023,05,13,03,51,13.00
2023,05,13,03,52,12.90
2023,05,13,03,53,12.90
2023,05,13,03,54,12.90
2023,05,13,03,55,12.90
2023,05,13,03,56,12.90
2023,05,13,03,57,12.90
2023,05,13,03,58,12.90
2023,05,13,03,59,12.90
2023,05,13,04,00,12.80
2023,05,13,04,01,12.80
2023,05,13,04,02,12.80
2023,05,13,04,03,12.80
2023,05,13,04,04,12.80
2023,05,13,04,05,12.80
2023,05,13,04,06,12.80
2023,05,13,04,07,12.80
2023,05,13,04,08,12.80
2023,05,13,04,09,12.90
2023,05,13,04,10,12.90
2023,05,13,04,11,12.80
2023,05,13,04,12,12.90
2023,05,13,04,13,12.90
2023,05,13,04,14,12.90
2023,05,13,04,15,12.90
2023,05,13,04,16,12.90
2023,05,13,04,17,13.00
2023,05,13,04,18,13.00
2023,05,13,04,19,13.00
2023,05,13,04,20,13.00
2023,05,13,04,21,13.00
2023,05,13,04,22,13.00
2023,05,13,04,23,13.00
2023,05,13,04,24,13.00
2023,05,13,04,25,13.00
2023,05,13,04,26,13.00
2023,05,13,04,27,13.00
2023,05,13,04,28,12.90
2023,05,13,04,29,12.90
2023,05,13,04,30,12.90
2023,05,13,04,31,12.90
2023,05,13,04,32,12.90
2023,05,13,04,33,12.90
2023,05,13,04,34,12.80
2023,05,13,04,35,12.80
2023,05,13,04,36,12.80
2023,05,13,04,37,12.80
2023,05,13,04,38,12.80
2023,05,13,04,39,12.70
2023,05,13,04,40,12.70
2023,05,13,04,41,12.70
2023,05,13,04,42,12.70
2023,05,13,04,43,12.60
2023,05,13,04,44,12.60
2023,05,13,04,45,12.60
2023,05,13,04,46,12.60
2023,05,13,04,47,12.60
2023,05,13,04,48,12.60
2023,05,13,04,49,12.50
2023,05,13,04,50,12.50
2023,05,13,04,51,12.50
2023,05,13,04,52,12.40
2023,05,13,04,53,12.40
2023,05,13,04,54,12.40
2023,05,13,04,55,12.40
2023,05,13,04,56,12.50
2023,05,13,04,57,12.50
2023,05,13,04,58,12.50
2023,05,13,04,59,12.50
2023,05,13,05,00,12.50
2023,05,13,05,01,12.50
2023,05,13,05,02,12.50
2023,05,13,05,03,12.40
2023,05,13,05,04,12.40
2023,05,13,05,05,12.40
2023,05,13,05,06,12.40
2023,05,13,05,07,12.40
2023,05,13,05,08,12.40
2023,05,13,05,09,12.40
2023,05,13,05,10,12.40
2023,05,13,05,11,12.40
2023,05,13,05,12,12.40
2023,05,13,05,13,12.30
2023,05,13,05,14,12.30
2023,05,13,05,15,12.40
2023,05,13,05,16,12.40
2023,05,13,05,17,12.40
2023,05,13,05,18,12.40
2023,05,13,05,19,12.40
2023,05,13,05,20,12.40
2023,05,13,05,21,12.40
2023,05,13,05,22,12.40
2023,05,13,05,23,12.40
2023,05,13,05,24,12.40
2023,05,13,05,25,12.40
2023,05,13,05,26,12.50
2023,05,13,05,27,12.40
2023,05,13,05,28,12.40
2023,05,13,05,29,12.40
2023,05,13,05,30,12.40
2023,05,13,05,31,12.40
2023,05,13,05,32,12.40
2023,05,13,05,33,12.40
2023,05,13,05,34,12.40
2023,05,13,05,35,12.40
2023,05,13,05,36,12.40
2023,05,13,05,37,12.40
2023,05,13,05,38,12.40
2023,05,13,05,39,12.40
2023,05,13,05,40,12.40
2023,05,13,05,41,12.40
2023,05,13,05,42,12.40
2023,05,13,05,43,12.40
2023,05,13,05,44,12.50
2023,05,13,05,45,12.50
2023,05,13,05,46,12.50
2023,05,13,05,47,12.50
2023,05,13,05,48,12.50
2023,05,13,05,49,12.50
2023,05,13,05,50,12.50
2023,05,13,05,51,12.50
2023,05,13,05,52,12.50
2023,05,13,05,53,12.50
2023,05,13,05,54,12.50
2023,05,13,05,55,12.50
2023,05,13,05,56,12.50
2023,05,13,05,57,12.60
2023,05,13,05,58,12.60
2023,05,13,05,59,12.60
2023,05,13,06,00,12.60
2023,05,13,06,01,12.60
2023,05,13,06,02,12.70
2023,05,13,06,03,12.70
2023,05,13,06,04,12.70
2023,05,13,06,05,12.70
2023,05,13,06,06,12.70
2023,05,13,06,07,12.80
2023,05,13,06,08,12.80
2023,05,13,06,09,12.80
2023,05,13,06,10,12.80
2023,05,13,06,11,12.90
2023,05,13,06,12,12.90
2023,05,13,06,13,12.90
2023,05,13,06,14,12.90
2023,05,13,06,15,12.90
2023,05,13,06,16,13.00
2023,05,13,06,17,13.00
2023,05,13,06,18,13.00
2023,05,13,06,19,13.10
2023,05,13,06,20,13.10
2023,05,13,06,21,13.10
2023,05,13,06,22,13.10
2023,05,13,06,23,13.10
2023,05,13,06,24,13.20
2023,05,13,06,25,13.20
2023,05,13,06,26,13.20
2023,05,13,06,27,13.20
2023,05,13,06,28,13.20
2023,05,13,06,29,13.20
2023,05,13,06,30,13.30
2023,05,13,06,31,13.30
2023,05,13,06,32,13.30
2023,05,13,06,33,13.30
2023,05,13,06,34,13.30
2023,05,13,06,35,13.40
2023,05,13,06,36,13.40
2023,05,13,06,37,13.40
2023,05,13,06,38,13.50
2023,05,13,06,39,13.50
2023,05,13,06,40,13.60
2023,05,13,06,41,13.60
2023,05,13,06,42,13.60
2023,05,13,06,43,13.60
2023,05,13,06,44,13.70
2023,05,13,06,45,13.70
2023,05,13,06,46,13.70
2023,05,13,06,47,13.70
2023,05,13,06,48,13.70
2023,05,13,06,49,13.70
2023,05,13,06,50,13.60
2023,05,13,06,51,13.60
2023,05,13,06,52,13.60
2023,05,13,06,53,13.60
2023,05,13,06,54,13.60
2023,05,13,06,55,13.60
2023,05,13,06,56,13.60
2023,05,13,06,57,13.50
2023,05,13,06,58,13.50
2023,05,13,06,59,13.50
2023,05,13,07,00,13.50
2023,05,13,07,01,13.50
2023,05,13,07,02,13.50
2023,05,13,07,03,13.50
2023,05,13,07,04,13.50
2023,05,13,07,05,13.60
2023,05,13,07,06,13.60
2023,05,13,07,07,13.60
2023,05,13,07,08,13.60
2023,05,13,07,09,13.60
2023,05,13,07,10,13.60
2023,05,13,07,11,13.60
2023,05,13,07,12,13.60
2023,05,13,07,13,13.70
2023,05,13,07,14,13.70
2023,05,13,07,15,13.70
2023,05,13,07,16,13.70
2023,05,13,07,17,13.80
2023,05,13,07,18,13.80
2023,05,13,07,19,13.80
2023,05,13,07,20,13.80
2023,05,13,07,21,13.80
2023,05,13,07,22,13.80
2023,05,13,07,23,13.90
2023,05,13,07,24,13.90
2023,05,13,07,25,13.90
2023,05,13,07,26,13.90
2023,05,13,07,27,13.90
2023,05,13,07,28,14.00
2023,05,13,07,29,14.00
2023,05,13,07,30,14.10
2023,05,13,07,31,14.10
2023,05,13,07,32,14.10
2023,05,13,07,33,14.20
2023,05,13,07,34,14.20
2023,05,13,07,35,14.30
2023,05,13,07,36,14.30
2023,05,13,07,37,14.40
2023,05,13,07,38,14.40
2023,05,13,07,39,14.50
2023,05,13,07,40,14.50
2023,05,13,07,41,14.50
2023,05,13,07,42,14.60
2023,05,13,07,43,14.60
2023,05,13,07,44,14.70
2023,05,13,07,45,14.70
2023,05,13,07,46,14.80
2023,05,13,07,47,14.80
2023,05,13,07,48,14.90
2023,05,13,07,49,14.90
2023,05,13,07,50,15.00
2023,05,13,07,51,15.00
2023,05,13,07,52,15.10
2023,05,13,07,53,15.10
2023,05,13,07,54,15.20
2023,05,13,07,55,15.30
2023,05,13,07,56,15.40
2023,05,13,07,57,15.50
2023,05,13,07,58,15.60
2023,05,13,07,59,15.80
2023,05,13,08,00,16.00
2023,05,13,08,01,16.20
2023,05,13,08,02,16.30
2023,05,13,08,03,16.50
2023,05,13,08,04,16.70
2023,05,13,08,05,16.80
2023,05,13,08,06,16.90
2023,05,13,08,07,17.00
2023,05,13,08,08,17.10
2023,05,13,08,09,17.20
2023,05,13,08,10,17.30
2023,05,13,08,11,17.50
2023,05,13,08,12,17.70
2023,05,13,08,13,17.90
2023,05,13,08,14,18.00
2023,05,13,08,15,18.10
2023,05,13,08,16,18.10
2023,05,13,08,17,18.10
2023,05,13,08,18,18.20
2023,05,13,08,19,18.20
2023,05,13,08,20,18.30
2023,05,13,08,21,18.30
2023,05,13,08,22,18.40
2023,05,13,08,23,18.40
2023,05,13,08,24,18.40
2023,05,13,08,25,18.40
2023,05,13,08,26,18.50
2023,05,13,08,27,18.50
2023,05,13,08,28,18.60
2023,05,13,08,29,18.70
2023,05,13,08,30,18.90
2023,05,13,08,31,19.10
2023,05,13,08,32,19.20
2023,05,13,08,33,19.30
2023,05,13,08,34,19.50
2023,05,13,08,35,19.60
2023,05,13,08,36,19.70
2023,05,13,08,37,19.70
2023,05,13,08,38,19.80
2023,05,13,08,39,19.80
2023,05,13,08,40,19.90
2023,05,13,08,41,20.00
2023,05,13,08,42,20.00
2023,05,13,08,43,20.10
2023,05,13,08,44,20.20
2023,05,13,08,45,20.20
2023,05,13,08,46,20.30
2023,05,13,08,47,20.30
2023,05,13,08,48,20.30
2023,05,13,08,49,20.40
2023,05,13,08,50,20.40
2023,05,13,08,51,20.40
2023,05,13,08,52,20.40
2023,05,13,08,53,20.40
2023,05,13,08,54,20.50
2023,05,13,08,55,20.50
2023,05,13,08,56,20.60
2023,05,13,08,57,20.60
2023,05,13,08,58,20.60
2023,05,13,08,59,20.70
2023,05,13,09,00,20.70
2023,05,13,09,01,20.80
2023,05,13,09,02,20.80
2023,05,13,09,03,20.80
2023,05,13,09,04,20.90
2023,05,13,09,05,20.90
2023,05,13,09,06,20.90
2023,05,13,09,07,21.00
2023,05,13,09,08,21.00
2023,05,13,09,09,21.00
2023,05,13,09,10,21.10
2023,05,13,09,11,21.10
2023,05,13,09,12,21.10
2023,05,13,09,13,21.10
2023,05,13,09,14,21.20
2023,05,13,09,15,21.20
2023,05,13,09,16,21.20
2023,05,13,09,17,21.20
2023,05,13,09,18,21.20
2023,05,13,09,19,21.20
2023,05,13,09,20,21.20
2023,05,13,09,21,21.20
2023,05,13,09,22,21.30
2023,05,13,09,23,21.30
2023,05,13,09,24,21.30
2023,05,13,09,25,21.40
2023,05,13,09,26,21.40
2023,05,13,09,27,21.50
2023,05,13,09,28,21.50
2023,05,13,09,29,21.60
2023,05,13,09,30,21.60
2023,05,13,09,31,21.60
2023,05,13,09,32,21.70
2023,05,13,09,33,21.70
2023,05,13,09,34,21.70
2023,05,13,09,35,21.80
2023,05,13,09,36,21.80
2023,05,13,09,37,21.80
2023,05,13,09,38,21.80
2023,05,13,09,39,21.80
2023,05,13,09,40,21.80
2023,05,13,09,41,21.90
2023,05,13,09,42,21.90
2023,05,13,09,43,21.90
2023,05,13,09,44,21.90
2023,05,13,09,45,22.00
2023,05,13,09,46,22.10
2023,05,13,09,47,22.10
2023,05,13,09,48,22.20
2023,05,13,09,49,22.20
2023,05,13,09,50,22.30
2023,05,13,09,51,22.30
2023,05,13,09,52,22.40
2023,05,13,09,53,22.40
2023,05,13,09,54,22.50
2023,05,13,09,55,22.50
2023,05,13,09,56,22.60
2023,05,13,09,57,22.60
2023,05,13,09,58,22.70
2023,05,13,09,59,22.70
2023,05,13,10,00,22.70
2023,05,13,10,01,22.70
2023,05,13,10,02,22.70
2023,05,13,10,03,22.70
2023,05,13,10,04,22.70
2023,05,13,10,05,22.80
2023,05,13,10,06,22.80
2023,05,13,10,07,22.80
2023,05,13,10,08,22.80
2023,05,13,10,09,22.80
2023,05,13,10,10,22.80
2023,05,13,10,11,22.80
2023,05,13,10,12,22.80
2023,05,13,10,13,22.80
2023,05,13,10,14,22.90
2023,05,13,10,15,22.90
2023,05,13,10,16,22.90
2023,05,13,10,17,22.90
2023,05,13,10,18,23.00
2023,05,13,10,19,23.10
2023,05,13,10,20,23.20
2023,05,13,10,21,23.20
2023,05,13,10,22,23.20
2023,05,13,10,23,23.20
2023,05,13,10,24,23.20
2023,05,13,10,25,23.20
2023,05,13,10,26,23.20
2023,05,13,10,27,23.30
2023,05,13,10,28,23.30
2023,05,13,10,29,23.40
2023,05,13,10,30,23.40
2023,05,13,10,31,23.40
2023,05,13,10,32,23.30
2023,05,13,10,33,23.40
2023,05,13,10,34,23.40
2023,05,13,10,35,23.50
2023,05,13,10,36,23.50
2023,05,13,10,37,23.60
2023,05,13,10,38,23.60
2023,05,13,10,39,23.70
2023,05,13,10,40,23.70
2023,05,13,10,41,23.70
2023,05,13,10,42,23.70
2023,05,13,10,43,23.70
2023,05,13,10,44,23.70
2023,05,13,10,45,23.60
2023,05,13,10,46,23.60
2023,05,13,10,47,23.60
2023,05,13,10,48,23.60
2023,05,13,10,49,23.70
2023,05,13,10,50,23.80
2023,05,13,10,51,23.90
2023,05,13,10,52,23.90
2023,05,13,10,53,23.90
2023,05,13,10,54,23.90
2023,05,13,10,55,23.90
2023,05,13,10,56,24.00
2023,05,13,10,57,24.00
2023,05,13,10,58,23.90
2023,05,13,10,59,23.80
2023,05,13,11,00,23.80
2023,05,13,11,01,23.80
2023,05,13,11,02,23.80
2023,05,13,11,03,23.90
2023,05,13,11,04,23.90
2023,05,13,11,05,23.90
2023,05,13,11,06,23.90
2023,05,13,11,07,23.90
2023,05,13,11,08,24.00
2023,05,13,11,09,24.00
2023,05,13,11,10,24.00
2023,05,13,11,11,24.00
2023,05,13,11,12,23.90
2023,05,13,11,13,23.90
2023,05,13,11,14,23.90
2023,05,13,11,15,24.00
2023,05,13,11,16,24.00
2023,05,13,11,17,24.00
2023,05,13,11,18,24.10
2023,05,13,11,19,24.10
2023,05,13,11,20,24.10
2023,05,13,11,21,24.20
2023,05,13,11,22,24.30
2023,05,13,11,23,24.30
2023,05,13,11,24,24.30
2023,05,13,11,25,24.30
2023,05,13,11,26,24.30
2023,05,13,11,27,24.40
2023,05,13,11,28,24.50
2023,05,13,11,29,24.60
2023,05,13,11,30,24.60
2023,05,13,11,31,24.70
2023,05,13,11,32,24.60
2023,05,13,11,33,24.60
2023,05,13,11,34,24.60
2023,05,13,11,35,24.70
2023,05,13,11,36,24.80
2023,05,13,11,37,24.80
2023,05,13,11,38,24.80
2023,05,13,11,39,24.70
2023,05,13,11,40,24.70
2023,05,13,11,41,24.80
2023,05,13,11,42,24.80
2023,05,13,11,43,24.70
2023,05,13,11,44,24.70
2023,05,13,11,45,24.70
2023,05,13,11,46,24.70
2023,05,13,11,47,24.70
2023,05,13,11,48,24.70
2023,05,13,11,49,24.70
2023,05,13,11,50,24.70
2023,05,13,11,51,24.60
2023,05,13,11,52,24.60
2023,05,13,11,53,24.60
2023,05,13,11,54,24.60
2023,05,13,11,55,24.60
2023,05,13,11,56,24.60
2023,05,13,11,57,24.60
2023,05,13,11,58,24.60
2023,05,13,11,59,24.60
2023,05,13,12,00,24.60
2023,05,13,12,01,24.60
2023,05,13,12,02,24.60
2023,05,13,12,03,24.60
2023,05,13,12,04,24.70
2023,05,13,12,05,24.70
2023,05,13,12,06,24.70
2023,05,13,12,07,24.80
2023,05,13,12,08,24.80
2023,05,13,12,09,24.90
2023,05,13,12,10,25.00
2023,05,13,12,11,25.10
2023,05,13,12,12,25.20
2023,05,13,12,13,25.20
2023,05,13,12,14,25.30
2023,05,13,12,15,25.20
2023,05,13,12,16,25.20
2023,05,13,12,17,25.20
2023,05,13,12,18,25.20
2023,05,13,12,19,25.30
2023,05,13,12,20,25.50
2023,05,13,12,21,25.60
2023,05,13,12,22,25.70
2023,05,13,12,23,25.70
2023,05,13,12,24,25.60
2023,05,13,12,25,25.50
2023,05,13,12,26,25.50
2023,05,13,12,27,25.40
2023,05,13,12,28,25.50
2023,05,13,12,29,25.50
2023,05,13,12,30,25.50
2023,05,13,12,31,25.50
2023,05,13,12,32,25.50
2023,05,13,12,33,25.50
2023,05,13,12,34,25.60
2023,05,13,12,35,25.60
2023,05,13,12,36,25.60
2023,05,13,12,37,25.60
2023,05,13,12,38,25.60
2023,05,13,12,39,25.60
2023,05,13,12,40,25.50
2023,05,13,12,41,25.40
2023,05,13,12,42,25.40
2023,05,13,12,43,25.40
2023,05,13,12,44,25.50
2023,05,13,12,45,25.50
2023,05,13,12,46,25.60
2023,05,13,12,47,25.60
2023,05,13,12,48,25.70
2023,05,13,12,49,25.70
2023,05,13,12,50,25.70
2023,05,13,12,51,25.70
2023,05,13,12,52,25.80
2023,05,13,12,53,25.80
2023,05,13,12,54,25.80
2023,05,13,12,55,25.90
2023,05,13,12,56,25.90
2023,05,13,12,57,25.90
2023,05,13,12,58,25.90
2023,05,13,12,59,25.90
2023,05,13,13,00,25.80
2023,05,13,13,01,25.80
2023,05,13,13,02,25.70
2023,05,13,13,03,25.70
2023,05,13,13,04,25.70
2023,05,13,13,05,25.70
2023,05,13,13,06,25.70
2023,05,13,13,07,25.80
2023,05,13,13,08,25.80
2023,05,13,13,09,25.90
2023,05,13,13,10,26.00
2023,05,13,13,11,26.10
2023,05,13,13,12,26.20
2023,05,13,13,13,26.20
2023,05,13,13,14,26.20
2023,05,13,13,15,26.20
2023,05,13,13,16,26.10
2023,05,13,13,17,26.10
2023,05,13,13,18,26.10
2023,05,13,13,19,26.20
2023,05,13,13,20,26.20
2023,05,13,13,21,26.20
2023,05,13,13,22,26.20
2023,05,13,13,23,26.20
2023,05,13,13,24,26.20
2023,05,13,13,25,26.30
2023,05,13,13,26,26.30
2023,05,13,13,27,26.40
2023,05,13,13,28,26.50
2023,05,13,13,29,26.50
2023,05,13,13,30,26.60
2023,05,13,13,31,26.70
2023,05,13,13,32,26.80
2023,05,13,13,33,26.80
2023,05,13,13,34,26.80
2023,05,13,13,35,26.90
2023,05,13,13,36,27.00
2023,05,13,13,37,27.00
2023,05,13,13,38,27.10
2023,05,13,13,39,27.10
2023,05,13,13,40,27.20
2023,05,13,13,41,27.20
2023,05,13,13,42,27.20
2023,05,13,13,43,27.20
2023,05,13,13,44,27.10
2023,05,13,13,45,27.00
2023,05,13,13,46,27.00
2023,05,13,13,47,27.00
2023,05,13,13,48,27.10
2023,05,13,13,49,27.20
2023,05,13,13,50,27.20
2023,05,13,13,51,27.30
2023,05,13,13,52,27.30
2023,05,13,13,53,27.30
2023,05,13,13,54,27.30
2023,05,13,13,55,27.30
2023,05,13,13,56,27.30
2023,05,13,13,57,27.30
2023,05,13,13,58,27.30
2023,05,13,13,59,27.40
2023,05,13,14,00,27.40
2023,05,13,14,01,27.40
2023,05,13,14,02,27.50
2023,05,13,14,03,27.50
2023,05,13,14,04,27.50
2023,05,13,14,05,27.50
2023,05,13,14,06,27.50
2023,05,13,14,07,27.50
2023,05,13,14,08,27.60
2023,05,13,14,09,27.60
2023,05,13,14,10,27.70
2023,05,13,14,11,27.70
2023,05,13,14,12,27.60
2023,05,13,14,13,27.50
2023,05,13,14,14,27.50
2023,05,13,14,15,27.50
2023,05,13,14,16,27.40
2023,05,13,14,17,27.40
2023,05,13,14,18,27.30
2023,05,13,14,19,27.20
2023,05,13,14,20,27.20
2023,05,13,14,21,27.10
2023,05,13,14,22,27.20
2023,05,13,14,23,27.20
2023,05,13,14,24,27.30
2023,05,13,14,25,27.40
2023,05,13,14,26,27.40
2023,05,13,14,27,27.40
2023,05,13,14,28,27.40
2023,05,13,14,29,27.50
2023,05,13,14,30,27.50
2023,05,13,14,31,27.50
2023,05,13,14,32,27.50
2023,05,13,14,33,27.40
2023,05,13,14,34,27.40
2023,05,13,14,35,27.40
2023,05,13,14,36,27.40
2023,05,13,14,37,27.30
2023,05,13,14,38,27.20
2023,05,13,14,39,27.10
2023,05,13,14,40,27.10
2023,05,13,14,41,27.10
2023,05,13,14,42,27.10
2023,05,13,14,43,27.10
2023,05,13,14,44,27.10
2023,05,13,14,45,27.10
2023,05,13,14,46,27.20
2023,05,13,14,47,27.20
2023,05,13,14,48,27.30
2023,05,13,14,49,27.30
2023,05,13,14,50,27.30
2023,05,13,14,51,27.30
2023,05,13,14,52,27.30
2023,05,13,14,53,27.30
2023,05,13,14,54,27.30
2023,05,13,14,55,27.30
2023,05,13,14,56,27.40
2023,05,13,14,57,27.30
2023,05,13,14,58,27.30
2023,05,13,14,59,27.30
2023,05,13,15,00,27.30
2023,05,13,15,01,27.30
2023,05,13,15,02,27.30
2023,05,13,15,03,27.30
2023,05,13,15,04,27.40
2023,05,13,15,05,27.40
2023,05,13,15,06,27.50
2023,05,13,15,07,27.60
2023,05,13,15,08,27.70
2023,05,13,15,09,27.80
2023,05,13,15,10,27.80
2023,05,13,15,11,27.80
2023,05,13,15,12,27.80
2023,05,13,15,13,27.90
2023,05,13,15,14,27.90
2023,05,13,15,15,27.90
2023,05,13,15,16,27.90
2023,05,13,15,17,27.90
2023,05,13,15,18,27.90
2023,05,13,15,19,27.90
2023,05,13,15,20,27.90
2023,05,13,15,21,27.90
2023,05,13,15,22,27.80
2023,05,13,15,23,27.80
2023,05,13,15,24,27.90
2023,05,13,15,25,28.00
2023,05,13,15,26,28.10
2023,05,13,15,27,28.10
2023,05,13,15,28,28.10
2023,05,13,15,29,28.10
2023,05,13,15,30,28.10
2023,05,13,15,31,28.10
2023,05,13,15,32,28.10
2023,05,13,15,33,28.10
2023,05,13,15,34,28.10
2023,05,13,15,35,28.10
2023,05,13,15,36,28.10
2023,05,13,15,37,28.20
2023,05,13,15,38,28.20
2023,05,13,15,39,28.20
2023,05,13,15,40,28.30
2023,05,13,15,41,28.30
2023,05,13,15,42,28.30
2023,05,13,15,43,28.30
2023,05,13,15,44,28.30
2023,05,13,15,45,28.20
2023,05,13,15,46,28.20
2023,05,13,15,47,28.20
2023,05,13,15,48,28.10
2023,05,13,15,49,28.10
2023,05,13,15,50,28.00
2023,05,13,15,51,28.00
2023,05,13,15,52,28.00
2023,05,13,15,53,28.00
2023,05,13,15,54,28.00
2023,05,13,15,55,28.00
2023,05,13,15,56,28.00
2023,05,13,15,57,27.90
2023,05,13,15,58,27.90
2023,05,13,15,59,27.80
2023,05,13,16,00,27.90
2023,05,13,16,01,28.00
2023,05,13,16,02,28.00
2023,05,13,16,03,28.10
2023,05,13,16,04,28.10
2023,05,13,16,05,28.20
2023,05,13,16,06,28.20
2023,05,13,16,07,28.20
2023,05,13,16,08,28.20
2023,05,13,16,09,28.20
2023,05,13,16,10,28.30
2023,05,13,16,11,28.30
2023,05,13,16,12,28.30
2023,05,13,16,13,28.30
2023,05,13,16,14,28.20
2023,05,13,16,15,28.30
2023,05,13,16,16,28.30
2023,05,13,16,17,28.30
2023,05,13,16,18,28.30
2023,05,13,16,19,28.30
2023,05,13,16,20,28.30
2023,05,13,16,21,28.30
2023,05,13,16,22,28.20
2023,05,13,16,23,28.20
2023,05,13,16,24,28.10
2023,05,13,16,25,28.10
2023,05,13,16,26,28.10
2023,05,13,16,27,28.10
2023,05,13,16,28,28.10
2023,05,13,16,29,28.10
2023,05,13,16,30,28.10
2023,05,13,16,31,28.10
2023,05,13,16,32,28.20
2023,05,13,16,33,28.20
2023,05,13,16,34,28.30
2023,05,13,16,35,28.30
2023,05,13,16,36,28.40
2023,05,13,16,37,28.40
2023,05,13,16,38,28.50
2023,05,13,16,39,28.50
2023,05,13,16,40,28.50
2023,05,13,16,41,28.50
2023,05,13,16,42,28.50
2023,05,13,16,43,28.60
2023,05,13,16,44,28.60
2023,05,13,16,45,28.60
2023,05,13,16,46,28.70
2023,05,13,16,47,28.70
2023,05,13,16,48,28.70
2023,05,13,16,49,28.80
2023,05,13,16,50,28.70
2023,05,13,16,51,28.60
2023,05,13,16,52,28.60
2023,05,13,16,53,28.60
2023,05,13,16,54,28.60
2023,05,13,16,55,28.50
2023,05,13,16,56,28.50
2023,05,13,16,57,28.50
2023,05,13,16,58,28.50
2023,05,13,16,59,28.50
2023,05,13,17,00,28.50
2023,05,13,17,01,28.50
2023,05,13,17,02,28.50
2023,05,13,17,03,28.60
2023,05,13,17,04,28.60
2023,05,13,17,05,28.60
2023,05,13,17,06,28.70
2023,05,13,17,07,28.60
2023,05,13,17,08,28.60
2023,05,13,17,09,28.50
2023,05,13,17,10,28.50
2023,05,13,17,11,28.50
2023,05,13,17,12,28.40
2023,05,13,17,13,28.40
2023,05,13,17,14,28.40
2023,05,13,17,15,28.30
2023,05,13,17,16,28.30
2023,05,13,17,17,28.30
2023,05,13,17,18,28.30
2023,05,13,17,19,28.30